| time (UTC) | temp C | wind direction | speed KPH | gust KPH | rain 1hr cm | rain 24hr cm | rain mn cm | humidity % | barometer mb |
| 20260903133738 | 26 | 115 | 11.3 | 16.1 | 0.00 | 0.03 | 0.03 | 74 | 1011.9 |
| 20260903133245 | 26 | 106 | 8.0 | 12.9 | 0.00 | 0.03 | 0.03 | 73 | 1011.9 |
| 20260903133012 | 26 | 132 | 4.8 | 11.3 | 0.00 | 0.03 | 0.03 | 72 | 1009.0 |
| 20260903132727 | 26 | 112 | 6.4 | 14.5 | 0.00 | 0.03 | 0.03 | 72 | 1011.9 |
| 20260903132239 | 26 | 132 | 6.4 | 14.5 | 0.00 | 0.03 | 0.03 | 70 | 1011.8 |
| 20260903131723 | 26 | 149 | 6.4 | 11.3 | 0.00 | 0.03 | 0.03 | 70 | 1011.9 |
| 20260903131525 | 26 | 149 | 6.4 | 11.3 | 0.00 | 0.03 | 0.03 | 70 | 1009.0 |
| 20260903131236 | 26 | 155 | 6.4 | 9.7 | 0.00 | 0.03 | 0.03 | 71 | 1011.9 |
| 20260903130807 | 26 | 128 | 4.8 | 8.0 | 0.00 | 0.03 | 0.03 | 70 | 1011.9 |
| 20260903130228 | 26 | 132 | 3.2 | 11.3 | 0.00 | 0.03 | 0.03 | 70 | 1012.0 |
| 20260903130101 | 26 | 95 | 3.2 | 11.3 | 0.00 | 0.03 | 0.03 | 70 | 1009.0 |
| 20260903125736 | 26 | 96 | 6.4 | 11.3 | 0.00 | 0.03 | 0.03 | 70 | 1011.9 |
| 20260903125247 | 26 | 147 | 3.2 | 6.4 | 0.00 | 0.03 | 0.03 | 70 | 1012.1 |
| 20260903124728 | 26 | 147 | 1.6 | 6.4 | 0.00 | 0.03 | 0.03 | 70 | 1012.2 |
| 20260903124549 | 26 | 147 | 1.6 | 11.3 | 0.00 | 0.03 | 0.03 | 69 | 1009.1 |
| 20260903124241 | 26 | 147 | 4.8 | 14.5 | 0.00 | 0.03 | 0.03 | 70 | 1012.0 |
| 20260903123749 | 26 | 189 | 8.0 | 14.5 | 0.00 | 0.03 | 0.03 | 70 | 1012.0 |
| 20260903123240 | 26 | 161 | 9.7 | 12.9 | 0.00 | 0.03 | 0.03 | 70 | 1012.0 |
| 20260903123027 | 26 | 152 | 6.4 | 11.3 | 0.00 | 0.03 | 0.03 | 70 | 1008.9 |
| 20260903122722 | 26 | 191 | 8.0 | 14.5 | 0.00 | 0.03 | 0.03 | 70 | 1011.9 |
| 20260903122228 | 26 | 187 | 9.7 | 19.3 | 0.00 | 0.03 | 0.03 | 70 | 1011.8 |
| 20260903121738 | 26 | 172 | 11.3 | 19.3 | 0.00 | 0.03 | 0.03 | 70 | 1011.7 |
| 20260903121528 | 26 | 178 | 8.0 | 14.5 | 0.00 | 0.03 | 0.03 | 70 | 1008.7 |
| 20260903121252 | 26 | 169 | 8.0 | 14.5 | 0.00 | 0.03 | 0.03 | 70 | 1011.6 |
| 20260903120734 | 26 | 163 | 8.0 | 12.9 | 0.00 | 0.03 | 0.03 | 70 | 1011.6 |
| 20260903120244 | 26 | 198 | 6.4 | 16.1 | 0.00 | 0.03 | 0.03 | 70 | 1011.6 |
| 20260903120031 | 26 | 225 | 6.4 | 17.7 | 0.00 | 0.03 | 0.03 | 70 | 1008.6 |
| 20260903115725 | 26 | 176 | 9.7 | 17.7 | 0.00 | 0.03 | 0.03 | 70 | 1011.6 |
| 20260903115236 | 26 | 194 | 9.7 | 17.7 | 0.00 | 0.03 | 0.03 | 71 | 1011.5 |
| 20260903114746 | 26 | 178 | 8.0 | 19.3 | 0.00 | 0.03 | 0.03 | 71 | 1011.4 |
| 20260903114539 | 26 | 202 | 11.3 | 19.3 | 0.00 | 0.03 | 0.03 | 71 | 1008.5 |
| 20260903114227 | 26 | 182 | 11.3 | 19.3 | 0.00 | 0.03 | 0.03 | 71 | 1011.4 |
| 20260903113736 | 26 | 186 | 9.7 | 17.7 | 0.00 | 0.03 | 0.03 | 72 | 1011.4 |
| 20260903113247 | 26 | 202 | 11.3 | 16.1 | 0.00 | 0.03 | 0.03 | 72 | 1011.3 |
| 20260903113050 | 25 | 146 | 9.7 | 19.3 | 0.00 | 0.03 | 0.03 | 72 | 1008.4 |
| 20260903112730 | 26 | 186 | 11.3 | 17.7 | 0.00 | 0.03 | 0.03 | 72 | 1011.3 |
| 20260903112241 | 25 | 164 | 12.9 | 29.0 | 0.00 | 0.03 | 0.03 | 73 | 1011.2 |
| 20260903111725 | 25 | 167 | 17.7 | 29.0 | 0.00 | 0.03 | 0.03 | 73 | 1011.2 |
| 20260903111546 | 25 | 159 | 17.7 | 29.0 | 0.00 | 0.03 | 0.03 | 73 | 1008.2 |
| 20260903111257 | 25 | 173 | 14.5 | 24.1 | 0.03 | 0.03 | 0.03 | 74 | 1011.2 |
| 20260903110743 | 25 | 198 | 12.9 | 24.1 | 0.03 | 0.03 | 0.03 | 74 | 1011.2 |
| 20260903110226 | 25 | 198 | 11.3 | 25.7 | 0.03 | 0.03 | 0.03 | 74 | 1011.2 |
| 20260903110021 | 25 | 186 | 11.3 | 25.7 | 0.03 | 0.03 | 0.03 | 74 | 1008.3 |
| 20260903105756 | 25 | 181 | 14.5 | 25.7 | 0.03 | 0.03 | 0.03 | 75 | 1011.3 |
| 20260903105245 | 25 | 202 | 9.7 | 17.7 | 0.03 | 0.03 | 0.03 | 75 | 1011.4 |
| 20260903104727 | 25 | 187 | 9.7 | 16.1 | 0.03 | 0.03 | 0.03 | 75 | 1011.5 |
| 20260903104615 | 25 | 192 | 8.0 | 16.1 | 0.03 | 0.03 | 0.03 | 75 | 1008.5 |
| 20260903104300 | 25 | 165 | 9.7 | 16.1 | 0.03 | 0.03 | 0.03 | 75 | 1011.4 |
| 20260903103749 | 25 | 174 | 9.7 | 16.1 | 0.03 | 0.03 | 0.03 | 74 | 1011.4 |
| 20260903103227 | 25 | 190 | 8.0 | 14.5 | 0.03 | 0.03 | 0.03 | 75 | 1011.4 |
| 20260903103042 | 25 | 187 | 8.0 | 14.5 | 0.03 | 0.03 | 0.03 | 75 | 1008.5 |
| 20260903102737 | 25 | 156 | 11.3 | 16.1 | 0.03 | 0.03 | 0.03 | 74 | 1011.4 |
| 20260903102249 | 25 | 191 | 8.0 | 16.1 | 0.03 | 0.03 | 0.03 | 74 | 1011.4 |
| 20260903101739 | 25 | 198 | 8.0 | 12.9 | 0.03 | 0.03 | 0.03 | 74 | 1011.3 |
| 20260903101520 | 25 | 162 | 9.7 | 14.5 | 0.03 | 0.03 | 0.03 | 74 | 1008.5 |
| 20260903101251 | 25 | 171 | 9.7 | 14.5 | 0.00 | 0.00 | 0.00 | 73 | 1011.4 |
| 20260903100732 | 25 | 170 | 11.3 | 17.7 | 0.00 | 0.00 | 0.00 | 73 | 1011.3 |
| 20260903100243 | 25 | 167 | 12.9 | 17.7 | 0.00 | 0.00 | 0.00 | 73 | 1011.1 |
| 20260903100056 | 25 | 172 | 14.5 | 17.7 | 0.00 | 0.00 | 0.00 | 73 | 1008.3 |
| 20260903095749 | 25 | 175 | 14.5 | 17.7 | 0.00 | 0.00 | 0.00 | 73 | 1011.1 |
| 20260903095230 | 25 | 155 | 12.9 | 17.7 | 0.00 | 0.00 | 0.00 | 72 | 1011.2 |
| 20260903094742 | 25 | 166 | 14.5 | 24.1 | 0.00 | 0.00 | 0.00 | 73 | 1011.2 |
| 20260903094604 | 25 | 175 | 12.9 | 24.1 | 0.00 | 0.00 | 0.00 | 73 | 1008.3 |
| 20260903094227 | 26 | 166 | 16.1 | 24.1 | 0.00 | 0.00 | 0.00 | 72 | 1011.2 |
| 20260903093739 | 26 | 184 | 14.5 | 17.7 | 0.00 | 0.00 | 0.00 | 73 | 1011.2 |
| 20260903093222 | 26 | 159 | 12.9 | 17.7 | 0.00 | 0.00 | 0.00 | 72 | 1011.3 |
| 20260903093049 | 25 | 165 | 12.9 | 17.7 | 0.00 | 0.00 | 0.00 | 72 | 1008.4 |
| 20260903092734 | 26 | 180 | 12.9 | 17.7 | 0.00 | 0.00 | 0.00 | 72 | 1011.3 |
| 20260903092245 | 26 | 150 | 12.9 | 17.7 | 0.00 | 0.00 | 0.00 | 72 | 1011.3 |
| 20260903091724 | 26 | 167 | 14.5 | 16.1 | 0.00 | 0.00 | 0.00 | 72 | 1011.3 |
| 20260903091613 | 26 | 162 | 12.9 | 19.3 | 0.00 | 0.00 | 0.00 | 72 | 1008.4 |
| 20260903091236 | 26 | 173 | 14.5 | 22.5 | 0.00 | 0.00 | 0.00 | 72 | 1011.3 |
| 20260903090745 | 26 | 170 | 14.5 | 22.5 | 0.00 | 0.00 | 0.00 | 72 | 1011.3 |
| 20260903090228 | 26 | 171 | 14.5 | 24.1 | 0.00 | 0.00 | 0.00 | 71 | 1011.3 |
| 20260903090058 | 26 | 182 | 14.5 | 24.1 | 0.00 | 0.00 | 0.00 | 71 | 1008.4 |
| 20260903085740 | 26 | 200 | 12.9 | 19.3 | 0.00 | 0.00 | 0.00 | 70 | 1011.3 |
| 20260903085223 | 26 | 166 | 12.9 | 16.1 | 0.00 | 0.00 | 0.00 | 70 | 1011.3 |
| 20260903084759 | 26 | 203 | 12.9 | 19.3 | 0.00 | 0.00 | 0.00 | 70 | 1011.3 |
| 20260903084543 | 26 | 159 | 12.9 | 19.3 | 0.00 | 0.00 | 0.00 | 70 | 1008.5 |
| 20260903084249 | 26 | 190 | 14.5 | 19.3 | 0.00 | 0.00 | 0.00 | 70 | 1011.3 |
| 20260903083800 | 26 | 183 | 12.9 | 20.9 | 0.00 | 0.00 | 0.00 | 70 | 1011.3 |
| 20260903083247 | 26 | 178 | 12.9 | 19.3 | 0.00 | 0.00 | 0.00 | 70 | 1011.3 |
| 20260903083014 | 26 | 172 | 14.5 | 19.3 | 0.00 | 0.00 | 0.00 | 70 | 1008.5 |
| 20260903082805 | 26 | 158 | 12.9 | 22.5 | 0.00 | 0.00 | 0.00 | 70 | 1011.3 |
| 20260903082319 | 26 | 173 | 12.9 | 22.5 | 0.00 | 0.00 | 0.00 | 70 | 1011.3 |
| 20260903081741 | 26 | 175 | 14.5 | 25.7 | 0.00 | 0.00 | 0.00 | 70 | 1011.3 |
| 20260903081508 | 26 | 186 | 12.9 | 25.7 | 0.00 | 0.00 | 0.00 | 70 | 1008.4 |
| 20260903081225 | 26 | 167 | 14.5 | 25.7 | 0.00 | 0.00 | 0.00 | 70 | 1011.2 |
| 20260903080736 | 26 | 188 | 12.9 | 19.3 | 0.00 | 0.00 | 0.00 | 70 | 1011.3 |
| 20260903080247 | 26 | 180 | 12.9 | 17.7 | 0.00 | 0.00 | 0.00 | 70 | 1011.3 |
| 20260903080014 | 26 | 163 | 11.3 | 17.7 | 0.00 | 0.00 | 0.00 | 70 | 1008.4 |
| 20260903075731 | 26 | 171 | 12.9 | 16.1 | 0.00 | 0.00 | 0.00 | 70 | 1011.3 |
| 20260903075302 | 26 | 173 | 11.3 | 19.3 | 0.00 | 0.00 | 0.00 | 70 | 1011.3 |
| 20260903074727 | 26 | 178 | 12.9 | 22.5 | 0.00 | 0.00 | 0.00 | 69 | 1011.3 |
| 20260903074551 | 26 | 184 | 12.9 | 22.5 | 0.00 | 0.00 | 0.00 | 70 | 1008.4 |
| 20260903074239 | 26 | 174 | 12.9 | 22.5 | 0.00 | 0.00 | 0.00 | 70 | 1011.3 |
| 20260903073745 | 26 | 165 | 12.9 | 19.3 | 0.00 | 0.00 | 0.00 | 70 | 1011.3 |
| 20260903073232 | 26 | 180 | 14.5 | 22.5 | 0.00 | 0.00 | 0.00 | 70 | 1011.3 |
| 20260903073032 | 26 | 176 | 12.9 | 22.5 | 0.00 | 0.00 | 0.00 | 69 | 1008.4 |
| 20260903072744 | 26 | 151 | 12.9 | 16.1 | 0.00 | 0.00 | 0.00 | 69 | 1011.2 |
| 20260903072227 | 26 | 196 | 12.9 | 19.3 | 0.00 | 0.00 | 0.00 | 69 | 1011.2 |
| 20260903071738 | 26 | 159 | 12.9 | 19.3 | 0.00 | 0.00 | 0.00 | 69 | 1011.3 |
| 20260903071536 | 26 | 188 | 12.9 | 19.3 | 0.00 | 0.00 | 0.00 | 69 | 1008.4 |
| 20260903071250 | 26 | 171 | 12.9 | 19.3 | 0.00 | 0.00 | 0.00 | 69 | 1011.3 |
| 20260903070730 | 26 | 188 | 12.9 | 19.3 | 0.00 | 0.00 | 0.00 | 69 | 1011.3 |
| 20260903070257 | 26 | 182 | 12.9 | 19.3 | 0.00 | 0.00 | 0.00 | 68 | 1011.2 |
| 20260903070013 | 26 | 185 | 12.9 | 17.7 | 0.00 | 0.00 | 0.00 | 68 | 1008.4 |
| 20260903065746 | 26 | 180 | 12.9 | 17.7 | 0.00 | 0.00 | 0.00 | 68 | 1011.3 |
| 20260903065228 | 27 | 179 | 12.9 | 22.5 | 0.00 | 0.00 | 0.00 | 68 | 1011.4 |
| 20260903064738 | 27 | 169 | 14.5 | 19.3 | 0.00 | 0.00 | 0.00 | 68 | 1011.4 |
| 20260903064522 | 26 | 178 | 12.9 | 19.3 | 0.00 | 0.00 | 0.00 | 68 | 1008.5 |
| 20260903064223 | 27 | 175 | 12.9 | 19.3 | 0.00 | 0.00 | 0.00 | 68 | 1011.4 |
| 20260903063733 | 27 | 186 | 12.9 | 19.3 | 0.00 | 0.00 | 0.00 | 68 | 1011.4 |
| 20260903063244 | 27 | 175 | 14.5 | 24.1 | 0.00 | 0.00 | 0.00 | 68 | 1011.3 |
| 20260903063026 | 27 | 155 | 12.9 | 24.1 | 0.00 | 0.00 | 0.00 | 67 | 1008.5 |
| 20260903062726 | 27 | 161 | 12.9 | 24.1 | 0.00 | 0.00 | 0.00 | 67 | 1011.3 |
| 20260903062233 | 27 | 198 | 14.5 | 20.9 | 0.00 | 0.00 | 0.00 | 67 | 1011.3 |
| 20260903061746 | 27 | 172 | 12.9 | 20.9 | 0.00 | 0.00 | 0.00 | 67 | 1011.3 |
| 20260903061505 | 27 | 174 | 12.9 | 20.9 | 0.00 | 0.00 | 0.00 | 67 | 1008.5 |
| 20260903061237 | 27 | 167 | 14.5 | 20.9 | 0.00 | 0.00 | 0.00 | 67 | 1011.4 |
| 20260903060747 | 27 | 159 | 14.5 | 20.9 | 0.00 | 0.00 | 0.00 | 67 | 1011.3 |
| 20260903060229 | 27 | 144 | 16.1 | 25.7 | 0.00 | 0.00 | 0.00 | 67 | 1011.4 |
| 20260903060013 | 27 | 143 | 14.5 | 25.7 | 0.00 | 0.00 | 0.00 | 67 | 1008.5 |
| 20260903055740 | 27 | 150 | 12.9 | 25.7 | 0.00 | 0.00 | 0.00 | 67 | 1011.4 |
| 20260903055222 | 27 | 151 | 14.5 | 19.3 | 0.00 | 0.00 | 0.00 | 67 | 1011.4 |
| 20260903054729 | 27 | 171 | 14.5 | 20.9 | 0.00 | 0.00 | 0.00 | 67 | 1011.4 |
| 20260903054511 | 27 | 178 | 14.5 | 20.9 | 0.00 | 0.00 | 0.00 | 67 | 1008.6 |
| 20260903054242 | 27 | 171 | 12.9 | 22.5 | 0.00 | 0.00 | 0.00 | 67 | 1011.3 |
| 20260903053723 | 27 | 162 | 12.9 | 22.5 | 0.00 | 0.00 | 0.00 | 67 | 1011.3 |
| 20260903053236 | 27 | 175 | 14.5 | 22.5 | 0.00 | 0.00 | 0.00 | 66 | 1011.4 |
| 20260903053028 | 27 | 160 | 12.9 | 24.1 | 0.00 | 0.00 | 0.00 | 66 | 1008.5 |
| 20260903052746 | 27 | 170 | 12.9 | 19.3 | 0.00 | 0.00 | 0.00 | 66 | 1011.4 |
| 20260903052229 | 27 | 140 | 12.9 | 19.3 | 0.00 | 0.00 | 0.00 | 66 | 1011.4 |
| 20260903051741 | 27 | 158 | 14.5 | 19.3 | 0.00 | 0.00 | 0.00 | 65 | 1011.4 |
| 20260903051519 | 27 | 202 | 12.9 | 19.3 | 0.00 | 0.00 | 0.00 | 65 | 1008.5 |
| 20260903051254 | 27 | 156 | 12.9 | 19.3 | 0.00 | 0.00 | 0.00 | 65 | 1011.4 |
| 20260903050734 | 28 | 169 | 16.1 | 22.5 | 0.00 | 0.00 | 0.00 | 65 | 1011.3 |
| 20260903050243 | 28 | 157 | 16.1 | 22.5 | 0.00 | 0.00 | 0.00 | 64 | 1011.4 |
| 20260903050100 | 27 | 137 | 11.3 | 19.3 | 0.00 | 0.00 | 0.00 | 64 | 1008.5 |
| 20260903045747 | 28 | 165 | 12.9 | 20.9 | 0.00 | 0.00 | 0.00 | 64 | 1011.4 |
| 20260903045231 | 28 | 158 | 14.5 | 20.9 | 0.00 | 0.00 | 0.00 | 63 | 1011.4 |
| 20260903044741 | 28 | 155 | 14.5 | 22.5 | 0.00 | 0.00 | 0.00 | 63 | 1011.4 |
| 20260903044604 | 28 | 163 | 12.9 | 22.5 | 0.00 | 0.00 | 0.00 | 63 | 1008.6 |
| 20260903044255 | 28 | 144 | 16.1 | 22.5 | 0.00 | 0.00 | 0.00 | 63 | 1011.4 |
| 20260903043745 | 28 | 147 | 16.1 | 25.7 | 0.00 | 0.00 | 0.00 | 63 | 1011.4 |
| 20260903043224 | 28 | 148 | 19.3 | 30.6 | 0.00 | 0.00 | 0.00 | 62 | 1011.3 |
| 20260903043038 | 28 | 158 | 16.1 | 30.6 | 0.00 | 0.00 | 0.00 | 63 | 1008.5 |
| 20260903042736 | 28 | 156 | 17.7 | 30.6 | 0.00 | 0.00 | 0.00 | 63 | 1011.3 |
| 20260903042247 | 28 | 157 | 16.1 | 27.4 | 0.00 | 0.00 | 0.00 | 62 | 1011.3 |
| 20260903041729 | 28 | 184 | 17.7 | 25.7 | 0.00 | 0.00 | 0.00 | 62 | 1011.2 |
| 20260903041553 | 28 | 169 | 17.7 | 27.4 | 0.00 | 0.00 | 0.00 | 62 | 1008.4 |
| 20260903041243 | 28 | 164 | 17.7 | 29.0 | 0.00 | 0.00 | 0.00 | 62 | 1011.3 |
| 20260903040724 | 28 | 178 | 16.1 | 30.6 | 0.00 | 0.00 | 0.00 | 62 | 1011.3 |
| 20260903040236 | 28 | 175 | 19.3 | 30.6 | 0.00 | 0.00 | 0.00 | 62 | 1011.3 |
| 20260903040053 | 28 | 200 | 19.3 | 27.4 | 0.00 | 0.00 | 0.00 | 62 | 1008.5 |
| 20260903035721 | 28 | 157 | 17.7 | 30.6 | 0.00 | 0.00 | 0.00 | 62 | 1011.3 |
| 20260903035251 | 28 | 146 | 17.7 | 27.4 | 0.00 | 0.00 | 0.00 | 63 | 1011.3 |
| 20260903034742 | 28 | 169 | 17.7 | 27.4 | 0.00 | 0.00 | 0.00 | 63 | 1011.3 |
| 20260903034534 | 28 | 150 | 17.7 | 29.0 | 0.00 | 0.00 | 0.00 | 63 | 1008.4 |
| 20260903034225 | 28 | 136 | 16.1 | 29.0 | 0.00 | 0.00 | 0.00 | 63 | 1011.3 |
| 20260903033736 | 28 | 175 | 17.7 | 29.0 | 0.00 | 0.00 | 0.00 | 63 | 1011.3 |
| 20260903033246 | 28 | 152 | 16.1 | 33.8 | 0.00 | 0.00 | 0.00 | 63 | 1011.3 |
| 20260903033034 | 28 | 163 | 17.7 | 33.8 | 0.00 | 0.00 | 0.00 | 63 | 1008.4 |
| 20260903032729 | 28 | 176 | 17.7 | 33.8 | 0.00 | 0.00 | 0.00 | 63 | 1011.3 |
| 20260903032239 | 28 | 165 | 16.1 | 24.1 | 0.00 | 0.00 | 0.00 | 63 | 1011.3 |
| 20260903031724 | 28 | 184 | 16.1 | 24.1 | 0.00 | 0.00 | 0.00 | 63 | 1011.3 |
| 20260903031538 | 28 | 149 | 14.5 | 24.1 | 0.00 | 0.00 | 0.00 | 63 | 1008.4 |
| 20260903031233 | 28 | 169 | 14.5 | 24.1 | 0.00 | 0.00 | 0.00 | 63 | 1011.3 |
| 20260903030743 | 28 | 160 | 16.1 | 25.7 | 0.00 | 0.00 | 0.00 | 63 | 1011.3 |
| 20260903030225 | 28 | 168 | 16.1 | 25.7 | 0.00 | 0.00 | 0.00 | 63 | 1011.3 |
| 20260903030038 | 28 | 167 | 16.1 | 25.7 | 0.00 | 0.00 | 0.00 | 63 | 1008.5 |
| 20260903025737 | 28 | 147 | 14.5 | 24.1 | 0.00 | 0.00 | 0.00 | 63 | 1011.3 |
| 20260903025222 | 28 | 159 | 17.7 | 24.1 | 0.00 | 0.00 | 0.00 | 63 | 1011.3 |
| 20260903024733 | 28 | 138 | 16.1 | 24.1 | 0.00 | 0.00 | 0.00 | 63 | 1011.2 |
| 20260903024542 | 28 | 160 | 16.1 | 24.1 | 0.00 | 0.00 | 0.00 | 63 | 1008.4 |
| 20260903024247 | 28 | 173 | 16.1 | 24.1 | 0.00 | 0.00 | 0.00 | 62 | 1011.2 |
| 20260903023727 | 28 | 165 | 16.1 | 22.5 | 0.00 | 0.00 | 0.00 | 62 | 1011.2 |
| 20260903023235 | 29 | 161 | 16.1 | 22.5 | 0.00 | 0.00 | 0.00 | 62 | 1011.2 |
| 20260903023050 | 28 | 161 | 14.5 | 22.5 | 0.00 | 0.00 | 0.00 | 62 | 1008.3 |
| 20260903022809 | 29 | 176 | 16.1 | 24.1 | 0.00 | 0.00 | 0.00 | 62 | 1011.1 |
| 20260903022232 | 29 | 180 | 14.5 | 22.5 | 0.00 | 0.00 | 0.00 | 62 | 1011.1 |
| 20260903021745 | 29 | 166 | 14.5 | 22.5 | 0.00 | 0.00 | 0.00 | 62 | 1011.1 |
| 20260903021523 | 29 | 159 | 11.3 | 22.5 | 0.00 | 0.00 | 0.00 | 62 | 1008.2 |
| 20260903021229 | 29 | 173 | 11.3 | 22.5 | 0.00 | 0.00 | 0.00 | 62 | 1011.0 |
| 20260903020738 | 30 | 148 | 14.5 | 19.3 | 0.00 | 0.00 | 0.00 | 61 | 1010.9 |
| 20260903020223 | 30 | 171 | 12.9 | 17.7 | 0.00 | 0.00 | 0.00 | 61 | 1010.9 |
| 20260903020032 | 30 | 136 | 11.3 | 17.7 | 0.00 | 0.00 | 0.00 | 61 | 1008.0 |
| 20260903015729 | 30 | 153 | 11.3 | 17.7 | 0.00 | 0.00 | 0.00 | 61 | 1010.8 |
| 20260903015239 | 30 | 168 | 12.9 | 20.9 | 0.00 | 0.00 | 0.00 | 60 | 1010.8 |
| 20260903014750 | 30 | 138 | 12.9 | 20.9 | 0.00 | 0.00 | 0.00 | 60 | 1010.8 |
| 20260903014520 | 30 | 140 | 11.3 | 17.7 | 0.00 | 0.00 | 0.00 | 59 | 1007.9 |
| 20260903014302 | 30 | 155 | 11.3 | 19.3 | 0.00 | 0.00 | 0.00 | 59 | 1010.8 |
| 20260903013721 | 31 | 164 | 11.3 | 19.3 | 0.00 | 0.00 | 0.00 | 59 | 1010.8 |
| 20260903013233 | 31 | 171 | 12.9 | 22.5 | 0.00 | 0.00 | 0.00 | 58 | 1010.7 |
| 20260903013101 | 31 | 165 | 11.3 | 22.5 | 0.00 | 0.00 | 0.00 | 58 | 1007.8 |
| 20260903013002 | 31 | 151 | 11.3 | 22.5 | 0.00 | 0.00 | 0.00 | 58 | 1007.8 |
| 20260903012745 | 31 | 153 | 14.5 | 22.5 | 0.00 | 0.00 | 0.00 | 58 | 1010.7 |
| 20260903012233 | 31 | 139 | 12.9 | 22.5 | 0.00 | 0.00 | 0.00 | 57 | 1010.6 |
| 20260903011743 | 31 | 155 | 12.9 | 20.9 | 0.00 | 0.00 | 0.00 | 57 | 1010.6 |
| 20260903011546 | 31 | 166 | 11.3 | 20.9 | 0.00 | 0.00 | 0.00 | 57 | 1007.6 |
| 20260903011229 | 32 | 186 | 11.3 | 19.3 | 0.00 | 0.00 | 0.00 | 56 | 1010.5 |
| 20260903010737 | 32 | 172 | 12.9 | 19.3 | 0.00 | 0.00 | 0.00 | 56 | 1010.6 |
| 20260903010221 | 32 | 150 | 11.3 | 19.3 | 0.00 | 0.00 | 0.00 | 55 | 1010.6 |
| 20260903010046 | 32 | 145 | 12.9 | 19.3 | 0.00 | 0.00 | 0.00 | 55 | 1007.6 |
| 20260903005732 | 32 | 184 | 12.9 | 19.3 | 0.00 | 0.00 | 0.00 | 55 | 1010.6 |
| 20260903005244 | 33 | 168 | 11.3 | 16.1 | 0.00 | 0.00 | 0.00 | 54 | 1010.5 |
| 20260903004726 | 33 | 168 | 11.3 | 16.1 | 0.00 | 0.00 | 0.00 | 53 | 1010.6 |
| 20260903004546 | 33 | 142 | 9.7 | 16.1 | 0.00 | 0.00 | 0.00 | 53 | 1007.6 |
| 20260903004235 | 33 | 162 | 9.7 | 16.1 | 0.00 | 0.00 | 0.00 | 53 | 1010.6 |
| 20260903003746 | 34 | 150 | 11.3 | 19.3 | 0.00 | 0.00 | 0.00 | 52 | 1010.6 |
| 20260903003230 | 34 | 142 | 12.9 | 19.3 | 0.00 | 0.00 | 0.00 | 51 | 1010.6 |
| 20260903003050 | 34 | 143 | 12.9 | 19.3 | 0.00 | 0.00 | 0.00 | 51 | 1007.7 |
| 20260903002741 | 35 | 168 | 11.3 | 16.1 | 0.00 | 0.00 | 0.00 | 51 | 1010.7 |
| 20260903002225 | 35 | 178 | 11.3 | 16.1 | 0.00 | 0.00 | 0.00 | 51 | 1010.6 |
| 20260903001736 | 35 | 163 | 11.3 | 17.7 | 0.00 | 0.00 | 0.00 | 50 | 1010.6 |
| 20260903001550 | 35 | 174 | 9.7 | 14.5 | 0.00 | 0.00 | 0.00 | 50 | 1007.7 |
| 20260903001249 | 35 | 153 | 9.7 | 16.1 | 0.00 | 0.00 | 0.00 | 49 | 1010.7 |
| 20260903000731 | 35 | 168 | 11.3 | 16.1 | 0.00 | 0.00 | 0.00 | 49 | 1010.7 |
| 20260903000240 | 36 | 180 | 11.3 | 16.1 | 0.00 | 0.00 | 0.00 | 48 | 1010.7 |
| 20260903000040 | 35 | 186 | 9.7 | 16.1 | 0.00 | 0.00 | 0.00 | 48 | 1007.7 |
| 20260902235810 | 36 | 161 | 11.3 | 16.1 | 0.00 | 0.00 | 0.00 | 48 | 1010.7 |
| 20260902235233 | 36 | 201 | 8.0 | 14.5 | 0.00 | 0.00 | 0.00 | 48 | 1010.7 |
| 20260902234745 | 36 | 195 | 9.7 | 17.7 | 0.00 | 0.00 | 0.00 | 48 | 1010.7 |
| 20260902234521 | 36 | 198 | 8.0 | 17.7 | 0.00 | 0.00 | 0.00 | 48 | 1007.8 |
| 20260902234229 | 36 | 167 | 9.7 | 17.7 | 0.00 | 0.00 | 0.00 | 48 | 1010.7 |
| 20260902233759 | 36 | 197 | 9.7 | 16.1 | 0.00 | 0.00 | 0.00 | 48 | 1010.8 |
| 20260902233221 | 36 | 182 | 11.3 | 14.5 | 0.00 | 0.00 | 0.00 | 48 | 1010.7 |
| 20260902233006 | 36 | 174 | 9.7 | 14.5 | 0.00 | 0.00 | 0.00 | 48 | 1007.7 |
| 20260902232810 | 36 | 182 | 8.0 | 12.9 | 0.00 | 0.00 | 0.00 | 48 | 1010.7 |
| 20260902232231 | 36 | 198 | 6.4 | 16.1 | 0.00 | 0.00 | 0.00 | 49 | 1010.7 |
| 20260902231803 | 36 | 171 | 11.3 | 16.1 | 0.00 | 0.00 | 0.00 | 48 | 1010.7 |
| 20260902231526 | 36 | 201 | 8.0 | 19.3 | 0.00 | 0.00 | 0.00 | 47 | 1007.7 |
| 20260902231225 | 36 | 163 | 9.7 | 19.3 | 0.00 | 0.00 | 0.00 | 48 | 1010.6 |
| 20260902230733 | 36 | 200 | 12.9 | 19.3 | 0.00 | 0.00 | 0.00 | 47 | 1010.7 |
| 20260902230244 | 36 | 173 | 9.7 | 16.1 | 0.00 | 0.00 | 0.00 | 47 | 1010.7 |
| 20260902230026 | 36 | 200 | 9.7 | 16.1 | 0.00 | 0.00 | 0.00 | 48 | 1007.7 |
| 20260902225721 | 36 | 192 | 8.0 | 17.7 | 0.00 | 0.00 | 0.00 | 48 | 1010.7 |
| 20260902225233 | 37 | 221 | 9.7 | 20.9 | 0.00 | 0.00 | 0.00 | 48 | 1010.7 |
| 20260902224743 | 36 | 161 | 11.3 | 20.9 | 0.00 | 0.00 | 0.00 | 47 | 1010.7 |
| 20260902224528 | 36 | 189 | 9.7 | 17.7 | 0.00 | 0.00 | 0.00 | 48 | 1007.7 |
| 20260902224229 | 36 | 194 | 11.3 | 19.3 | 0.00 | 0.00 | 0.00 | 48 | 1010.8 |
| 20260902223739 | 36 | 167 | 11.3 | 24.1 | 0.00 | 0.00 | 0.00 | 47 | 1010.8 |
| 20260902223250 | 36 | 217 | 12.9 | 24.1 | 0.00 | 0.00 | 0.00 | 46 | 1010.7 |
| 20260902223006 | 36 | 204 | 12.9 | 25.7 | 0.00 | 0.00 | 0.00 | 46 | 1007.8 |
| 20260902222741 | 36 | 201 | 11.3 | 22.5 | 0.00 | 0.00 | 0.00 | 46 | 1010.8 |
| 20260902222224 | 36 | 198 | 12.9 | 25.7 | 0.00 | 0.00 | 0.00 | 46 | 1010.8 |
| 20260902221731 | 36 | 164 | 16.1 | 25.7 | 0.00 | 0.00 | 0.00 | 46 | 1010.8 |
| 20260902221547 | 36 | 218 | 11.3 | 25.7 | 0.00 | 0.00 | 0.00 | 47 | 1007.9 |
| 20260902221244 | 36 | 207 | 17.7 | 33.8 | 0.00 | 0.00 | 0.00 | 46 | 1010.8 |
| 20260902220724 | 36 | 189 | 20.9 | 33.8 | 0.00 | 0.00 | 0.00 | 45 | 1010.8 |
| 20260902220246 | 36 | 227 | 14.5 | 24.1 | 0.00 | 0.00 | 0.00 | 47 | 1010.8 |
| 20260902220041 | 36 | 211 | 17.7 | 25.7 | 0.00 | 0.00 | 0.00 | 45 | 1007.9 |
| 20260902215728 | 37 | 218 | 16.1 | 25.7 | 0.00 | 0.00 | 0.00 | 46 | 1010.9 |
| 20260902215238 | 37 | 178 | 19.3 | 30.6 | 0.00 | 0.00 | 0.00 | 45 | 1010.9 |
| 20260902214722 | 37 | 215 | 20.9 | 30.6 | 0.00 | 0.00 | 0.00 | 45 | 1010.9 |
| 20260902214537 | 37 | 204 | 17.7 | 30.6 | 0.00 | 0.00 | 0.00 | 45 | 1007.9 |
| 20260902214231 | 37 | 191 | 20.9 | 35.4 | 0.00 | 0.00 | 0.00 | 45 | 1010.8 |
| 20260902213741 | 37 | 204 | 20.9 | 30.6 | 0.00 | 0.00 | 0.00 | 44 | 1011.0 |
| 20260902213224 | 37 | 181 | 17.7 | 30.6 | 0.00 | 0.00 | 0.00 | 44 | 1010.9 |
| 20260902213041 | 37 | 180 | 17.7 | 32.2 | 0.00 | 0.00 | 0.00 | 44 | 1008.1 |
| 20260902212756 | 37 | 158 | 17.7 | 32.2 | 0.00 | 0.00 | 0.00 | 44 | 1011.0 |
| 20260902212247 | 37 | 210 | 20.9 | 32.2 | 0.00 | 0.00 | 0.00 | 44 | 1011.0 |
| 20260902211726 | 38 | 179 | 16.1 | 33.8 | 0.00 | 0.00 | 0.00 | 43 | 1011.0 |
| 20260902211523 | 37 | 170 | 17.7 | 29.0 | 0.00 | 0.00 | 0.00 | 45 | 1008.0 |
| 20260902211255 | 38 | 206 | 19.3 | 27.4 | 0.00 | 0.00 | 0.00 | 45 | 1011.1 |
| 20260902210743 | 37 | 164 | 14.5 | 25.7 | 0.00 | 0.00 | 0.00 | 46 | 1011.0 |
| 20260902210227 | 37 | 159 | 16.1 | 29.0 | 0.00 | 0.00 | 0.00 | 45 | 1011.1 |
| 20260902210115 | 37 | 181 | 16.1 | 29.0 | 0.00 | 0.00 | 0.00 | 45 | 1008.2 |
| 20260902205738 | 37 | 159 | 17.7 | 29.0 | 0.00 | 0.00 | 0.00 | 46 | 1011.2 |
| 20260902205249 | 37 | 196 | 12.9 | 27.4 | 0.00 | 0.00 | 0.00 | 47 | 1011.2 |
| 20260902204731 | 37 | 212 | 17.7 | 30.6 | 0.00 | 0.00 | 0.00 | 48 | 1011.3 |
| 20260902204547 | 37 | 180 | 12.9 | 30.6 | 0.00 | 0.00 | 0.00 | 47 | 1008.3 |
| 20260902204304 | 37 | 174 | 17.7 | 30.6 | 0.00 | 0.00 | 0.00 | 46 | 1011.3 |
| 20260902203727 | 37 | 205 | 14.5 | 27.4 | 0.00 | 0.00 | 0.00 | 47 | 1011.4 |
| 20260902203234 | 37 | 193 | 17.7 | 33.8 | 0.00 | 0.00 | 0.00 | 44 | 1011.3 |
| 20260902203037 | 36 | 212 | 17.7 | 33.8 | 0.00 | 0.00 | 0.00 | 45 | 1008.4 |
| 20260902202745 | 37 | 213 | 24.1 | 33.8 | 0.00 | 0.00 | 0.00 | 43 | 1011.3 |
| 20260902202227 | 37 | 203 | 22.5 | 32.2 | 0.00 | 0.00 | 0.00 | 43 | 1011.4 |
| 20260902201739 | 37 | 195 | 19.3 | 29.0 | 0.00 | 0.00 | 0.00 | 44 | 1011.5 |
| 20260902201550 | 37 | 163 | 17.7 | 25.7 | 0.00 | 0.00 | 0.00 | 44 | 1008.5 |
| 20260902201251 | 37 | 190 | 17.7 | 29.0 | 0.00 | 0.00 | 0.00 | 47 | 1011.5 |
| 20260902200731 | 36 | 178 | 16.1 | 35.4 | 0.00 | 0.00 | 0.00 | 46 | 1011.5 |
| 20260902200242 | 36 | 225 | 14.5 | 35.4 | 0.00 | 0.00 | 0.00 | 46 | 1011.6 |
| 20260902200025 | 36 | 190 | 20.9 | 35.4 | 0.00 | 0.00 | 0.00 | 45 | 1008.6 |
| 20260902195728 | 36 | 196 | 19.3 | 33.8 | 0.00 | 0.00 | 0.00 | 44 | 1011.6 |
| 20260902195239 | 36 | 213 | 22.5 | 33.8 | 0.00 | 0.00 | 0.00 | 44 | 1011.7 |
| 20260902194809 | 36 | 177 | 19.3 | 33.8 | 0.00 | 0.00 | 0.00 | 46 | 1011.7 |
| 20260902194557 | 36 | 179 | 19.3 | 33.8 | 0.00 | 0.00 | 0.00 | 45 | 1008.7 |
| 20260902194233 | 36 | 214 | 19.3 | 33.8 | 0.00 | 0.00 | 0.00 | 47 | 1011.7 |
| 20260902193743 | 36 | 188 | 20.9 | 33.8 | 0.00 | 0.00 | 0.00 | 47 | 1011.7 |
| 20260902193226 | 35 | 174 | 19.3 | 27.4 | 0.00 | 0.00 | 0.00 | 51 | 1011.8 |
| 20260902193055 | 35 | 219 | 16.1 | 24.1 | 0.00 | 0.00 | 0.00 | 50 | 1008.8 |
| 20260902192756 | 35 | 211 | 14.5 | 29.0 | 0.00 | 0.00 | 0.00 | 48 | 1011.9 |
| 20260902192243 | 35 | 185 | 14.5 | 29.0 | 0.00 | 0.00 | 0.00 | 49 | 1011.9 |
| 20260902191724 | 36 | 205 | 16.1 | 27.4 | 0.00 | 0.00 | 0.00 | 48 | 1011.9 |
| 20260902191544 | 35 | 175 | 12.9 | 22.5 | 0.00 | 0.00 | 0.00 | 49 | 1009.0 |
| 20260902191257 | 36 | 186 | 12.9 | 22.5 | 0.00 | 0.00 | 0.00 | 49 | 1011.9 |
| 20260902190747 | 35 | 192 | 16.1 | 27.4 | 0.00 | 0.00 | 0.00 | 48 | 1012.0 |
| 20260902190229 | 35 | 200 | 12.9 | 32.2 | 0.00 | 0.00 | 0.00 | 49 | 1012.0 |
| 20260902190015 | 35 | 202 | 17.7 | 32.2 | 0.00 | 0.00 | 0.00 | 48 | 1009.1 |
| 20260902185831 | 36 | 186 | 19.3 | 32.2 | 0.00 | 0.00 | 0.00 | 48 | 1012.1 |
| 20260902185321 | 36 | 211 | 12.9 | 29.0 | 0.00 | 0.00 | 0.00 | 48 | 1012.2 |
| 20260902184746 | 36 | 196 | 19.3 | 29.0 | 0.00 | 0.00 | 0.00 | 46 | 1012.2 |
| 20260902184509 | 35 | 211 | 19.3 | 30.6 | 0.00 | 0.00 | 0.00 | 47 | 1009.2 |
| 20260902184236 | 36 | 161 | 19.3 | 30.6 | 0.00 | 0.00 | 0.00 | 47 | 1012.2 |
| 20260902183745 | 36 | 171 | 17.7 | 30.6 | 0.00 | 0.00 | 0.00 | 48 | 1012.3 |
| 20260902183230 | 36 | 200 | 19.3 | 35.4 | 0.00 | 0.00 | 0.00 | 49 | 1012.3 |
| 20260902183017 | 35 | 182 | 20.9 | 35.4 | 0.00 | 0.00 | 0.00 | 47 | 1009.3 |
| 20260902182801 | 36 | 204 | 22.5 | 35.4 | 0.00 | 0.00 | 0.00 | 47 | 1012.3 |
| 20260902182307 | 36 | 191 | 19.3 | 30.6 | 0.00 | 0.00 | 0.00 | 48 | 1012.3 |
| 20260902181728 | 35 | 217 | 17.7 | 35.4 | 0.00 | 0.00 | 0.00 | 48 | 1012.4 |
| 20260902181540 | 35 | 211 | 19.3 | 35.4 | 0.00 | 0.00 | 0.00 | 45 | 1009.4 |
| 20260902181241 | 36 | 202 | 24.1 | 35.4 | 0.00 | 0.00 | 0.00 | 45 | 1012.4 |
| 20260902180722 | 35 | 157 | 22.5 | 33.8 | 0.00 | 0.00 | 0.00 | 46 | 1012.4 |
| 20260902180234 | 35 | 202 | 19.3 | 33.8 | 0.00 | 0.00 | 0.00 | 48 | 1012.4 |
| 20260902180030 | 35 | 189 | 20.9 | 33.8 | 0.00 | 0.00 | 0.00 | 49 | 1009.4 |
| 20260902175745 | 35 | 207 | 16.1 | 30.6 | 0.00 | 0.00 | 0.00 | 50 | 1012.5 |
| 20260902175226 | 35 | 200 | 19.3 | 35.4 | 0.00 | 0.00 | 0.00 | 48 | 1012.5 |
| 20260902174733 | 34 | 215 | 24.1 | 35.4 | 0.00 | 0.00 | 0.00 | 48 | 1012.5 |
| 20260902174536 | 33 | 211 | 20.9 | 38.6 | 0.00 | 0.00 | 0.00 | 50 | 1009.7 |
| 20260902174246 | 34 | 194 | 20.9 | 29.0 | 0.00 | 0.00 | 0.00 | 49 | 1012.7 |
| 20260902173727 | 34 | 209 | 14.5 | 25.7 | 0.00 | 0.00 | 0.00 | 52 | 1012.7 |
| 20260902173238 | 34 | 178 | 16.1 | 32.2 | 0.00 | 0.00 | 0.00 | 50 | 1012.8 |
| 20260902173035 | 34 | 204 | 17.7 | 32.2 | 0.00 | 0.00 | 0.00 | 50 | 1009.9 |
| 20260902172749 | 34 | 186 | 17.7 | 32.2 | 0.00 | 0.00 | 0.00 | 50 | 1012.8 |
| 20260902172232 | 35 | 198 | 16.1 | 29.0 | 0.00 | 0.00 | 0.00 | 49 | 1012.8 |
| 20260902171744 | 34 | 173 | 16.1 | 24.1 | 0.00 | 0.00 | 0.00 | 51 | 1013.0 |
| 20260902171519 | 34 | 184 | 14.5 | 24.1 | 0.00 | 0.00 | 0.00 | 51 | 1010.1 |
| 20260902171234 | 34 | 202 | 12.9 | 24.1 | 0.00 | 0.00 | 0.00 | 51 | 1013.0 |
| 20260902170737 | 34 | 186 | 12.9 | 27.4 | 0.00 | 0.00 | 0.00 | 50 | 1013.0 |
| 20260902170248 | 34 | 186 | 19.3 | 29.0 | 0.00 | 0.00 | 0.00 | 51 | 1012.9 |
| 20260902170013 | 33 | 173 | 17.7 | 29.0 | 0.00 | 0.00 | 0.00 | 51 | 1010.0 |
| 20260902165732 | 33 | 214 | 16.1 | 29.0 | 0.00 | 0.00 | 0.00 | 50 | 1012.9 |
| 20260902165308 | 33 | 171 | 19.3 | 25.7 | 0.00 | 0.00 | 0.00 | 53 | 1012.9 |
| 20260902164722 | 33 | 172 | 16.1 | 25.7 | 0.00 | 0.00 | 0.00 | 52 | 1012.9 |
| 20260902164551 | 33 | 159 | 16.1 | 25.7 | 0.00 | 0.00 | 0.00 | 54 | 1010.1 |
| 20260902164236 | 33 | 212 | 17.7 | 29.0 | 0.00 | 0.00 | 0.00 | 54 | 1013.0 |
| 20260902163747 | 33 | 209 | 19.3 | 29.0 | 0.00 | 0.00 | 0.00 | 51 | 1013.0 |
| 20260902163225 | 33 | 198 | 17.7 | 25.7 | 0.00 | 0.00 | 0.00 | 53 | 1013.0 |
| 20260902163051 | 33 | 200 | 14.5 | 24.1 | 0.00 | 0.00 | 0.00 | 55 | 1010.2 |
| 20260902162735 | 33 | 146 | 16.1 | 25.7 | 0.00 | 0.00 | 0.00 | 52 | 1013.0 |
| 20260902162307 | 32 | 194 | 17.7 | 25.7 | 0.00 | 0.00 | 0.00 | 55 | 1013.0 |
| 20260902161727 | 32 | 173 | 14.5 | 27.4 | 0.00 | 0.00 | 0.00 | 57 | 1013.0 |
| 20260902161527 | 32 | 188 | 14.5 | 27.4 | 0.00 | 0.00 | 0.00 | 55 | 1010.2 |
| 20260902161240 | 32 | 215 | 14.5 | 25.7 | 0.00 | 0.00 | 0.00 | 58 | 1013.0 |
| 20260902160749 | 32 | 211 | 12.9 | 22.5 | 0.00 | 0.00 | 0.00 | 60 | 1013.1 |
| 20260902160232 | 31 | 150 | 14.5 | 19.3 | 0.00 | 0.00 | 0.00 | 60 | 1013.1 |
| 20260902160036 | 31 | 201 | 9.7 | 17.7 | 0.00 | 0.00 | 0.00 | 60 | 1010.2 |
| 20260902155738 | 31 | 200 | 14.5 | 17.7 | 0.00 | 0.00 | 0.00 | 60 | 1013.1 |
| 20260902155221 | 31 | 181 | 12.9 | 17.7 | 0.00 | 0.00 | 0.00 | 59 | 1013.2 |
| 20260902154731 | 31 | 181 | 11.3 | 20.9 | 0.00 | 0.00 | 0.00 | 58 | 1013.2 |
| 20260902154539 | 31 | 202 | 9.7 | 20.9 | 0.00 | 0.00 | 0.00 | 59 | 1010.4 |
| 20260902154244 | 31 | 153 | 11.3 | 20.9 | 0.00 | 0.00 | 0.00 | 59 | 1013.2 |
| 20260902153725 | 31 | 202 | 12.9 | 22.5 | 0.00 | 0.00 | 0.00 | 58 | 1013.2 |
| 20260902153255 | 31 | 181 | 16.1 | 22.5 | 0.00 | 0.00 | 0.00 | 60 | 1013.2 |
| 20260902153011 | 30 | 167 | 16.1 | 24.1 | 0.00 | 0.00 | 0.00 | 60 | 1010.3 |
| 20260902152806 | 30 | 193 | 14.5 | 24.1 | 0.00 | 0.00 | 0.00 | 63 | 1013.2 |
| 20260902152224 | 30 | 202 | 14.5 | 19.3 | 0.00 | 0.00 | 0.00 | 62 | 1013.2 |
| 20260902151736 | 30 | 148 | 12.9 | 22.5 | 0.00 | 0.00 | 0.00 | 64 | 1013.3 |
| 20260902151539 | 29 | 173 | 14.5 | 24.1 | 0.00 | 0.00 | 0.00 | 63 | 1010.4 |
| 20260902151308 | 29 | 167 | 14.5 | 24.1 | 0.00 | 0.00 | 0.00 | 62 | 1013.3 |
| 20260902150728 | 29 | 163 | 16.1 | 24.1 | 0.00 | 0.00 | 0.00 | 62 | 1013.1 |
| 20260902150240 | 28 | 164 | 16.1 | 22.5 | 0.00 | 0.00 | 0.00 | 62 | 1013.2 |
| 20260902150056 | 28 | 180 | 14.5 | 22.5 | 0.00 | 0.00 | 0.00 | 62 | 1010.4 |
| 20260902145724 | 28 | 169 | 14.5 | 20.9 | 0.00 | 0.00 | 0.00 | 63 | 1013.3 |
| 20260902145236 | 27 | 161 | 11.3 | 16.1 | 0.00 | 0.00 | 0.00 | 66 | 1013.1 |
| 20260902144743 | 27 | 174 | 12.9 | 16.1 | 0.00 | 0.00 | 0.00 | 70 | 1013.2 |
| 20260902144555 | 26 | 176 | 9.7 | 16.1 | 0.00 | 0.00 | 0.00 | 70 | 1010.3 |
| 20260902144235 | 26 | 174 | 12.9 | 17.7 | 0.00 | 0.00 | 0.00 | 72 | 1013.2 |
| 20260902143745 | 26 | 167 | 9.7 | 16.1 | 0.00 | 0.00 | 0.00 | 70 | 1013.0 |
| 20260902143228 | 26 | 147 | 9.7 | 16.1 | 0.00 | 0.00 | 0.00 | 71 | 1013.2 |
| 20260902143040 | 26 | 142 | 9.7 | 16.1 | 0.00 | 0.00 | 0.00 | 71 | 1010.3 |
| 20260902142739 | 26 | 175 | 8.0 | 14.5 | 0.00 | 0.00 | 0.00 | 70 | 1013.2 |
| 20260902142311 | 26 | 183 | 11.3 | 17.7 | 0.00 | 0.00 | 0.00 | 69 | 1013.2 |
| 20260902141731 | 26 | 172 | 12.9 | 19.3 | 0.00 | 0.00 | 0.00 | 69 | 1013.2 |
| 20260902141526 | 26 | 171 | 12.9 | 19.3 | 0.00 | 0.00 | 0.00 | 69 | 1010.3 |
| 20260902141241 | 26 | 145 | 16.1 | 19.3 | 0.00 | 0.00 | 0.00 | 69 | 1013.2 |
| 20260902140723 | 26 | 172 | 8.0 | 14.5 | 0.00 | 0.00 | 0.00 | 68 | 1013.5 |
| 20260902140235 | 27 | 167 | 8.0 | 17.7 | 0.00 | 0.00 | 0.00 | 67 | 1013.5 |
| 20260902140028 | 26 | 202 | 8.0 | 17.7 | 0.00 | 0.00 | 0.00 | 67 | 1010.7 |
| 20260902135808 | 27 | 165 | 11.3 | 19.3 | 0.00 | 0.00 | 0.00 | 66 | 1013.3 |
| 20260902135229 | 27 | 180 | 11.3 | 16.1 | 0.00 | 0.00 | 0.00 | 65 | 1013.4 |
| 20260902134800 | 27 | 176 | 11.3 | 14.5 | 0.00 | 0.00 | 0.00 | 64 | 1013.5 |
| 20260902134540 | 27 | 180 | 8.0 | 11.3 | 0.00 | 0.00 | 0.00 | 64 | 1010.7 |
| 20260902134224 | 27 | 151 | 9.7 | 12.9 | 0.00 | 0.00 | 0.00 | 64 | 1013.4 |